Simultaneous Nadir Overpasses (SNOs) Predictions

Prediction of SNOs between LANDSAT-8 and TERRA Satellite Orbit:

Table of predicted SNOs for the next 14.0 days since TLE Epoch: 11/4/2022
Index Date (LANDSAT-8) Time (LANDSAT-8) Lat,Lon (LANDSAT-8) SZA (LANDSAT-8 ) Date (TERRA) Time (TERRA) Lat,Lon (TERRA) SZA (TERRA ) Distance(km) Time Diff (sec)
1 11/13/2022 05:50:48 61.64,-129.90 128.87 11/13/2022 05:52:01 61.62,-129.87 129.00 2.32 73
2 11/13/2022 06:38:57 -57.25, 40.59 47.28 11/13/2022 06:40:07 -57.25, 40.60 47.15 0.99 70
3 11/13/2022 07:28:11 56.39,-151.30 133.47 11/13/2022 07:29:17 56.38,-151.28 133.61 1.96 66
4 11/13/2022 08:15:52 -50.33, 19.29 41.48 11/13/2022 08:16:55 -50.33, 19.29 41.34 0.39 63
5 11/13/2022 09:05:12 49.79,-172.86 138.97 11/13/2022 09:06:11 49.78,-172.84 139.11 1.92 59
6 11/13/2022 09:53:33 -46.07, -3.74 38.11 11/13/2022 09:54:29 -46.08, -3.72 37.98 1.28 56
7 11/13/2022 10:43:03 46.11, 163.88 141.87 11/13/2022 10:43:55 46.11, 163.91 142.01 2.58 52
8 11/13/2022 11:32:26 -46.07, -28.46 38.10 11/13/2022 11:33:15 -46.09, -28.42 37.98 3.80 49
9 11/13/2022 12:21:56 46.11, 139.16 141.88 11/13/2022 12:22:41 46.12, 139.21 142.01 4.61 45
10 11/13/2022 13:11:19 -46.07, -53.18 38.08 11/13/2022 13:12:01 -46.11, -53.12 37.97 6.32 42
11 11/13/2022 14:24:04 48.15, -53.58 67.16 11/13/2022 14:24:40 48.15, -53.67 67.15 6.74 36
12 11/13/2022 15:13:36 -48.00, 113.99 112.98 11/13/2022 15:14:09 -48.00, 113.91 112.98 5.78 33
13 11/13/2022 16:03:04 47.74, -78.47 66.80 11/13/2022 16:03:33 47.72, -78.53 66.77 5.16 29
14 11/13/2022 16:52:36 -47.59, 89.10 113.34 11/13/2022 16:53:02 -47.58, 89.05 113.36 4.15 26
15 11/13/2022 17:42:05 47.26,-103.37 66.38 11/13/2022 17:42:26 47.29,-103.39 66.40 3.53 21
16 11/13/2022 18:31:37 -47.11, 64.20 113.75 11/13/2022 18:31:55 -47.15, 64.20 113.73 3.47 18
17 11/13/2022 19:21:05 46.85,-128.25 66.02 11/13/2022 19:21:19 46.86,-128.24 66.02 1.57 14
18 11/13/2022 20:10:32 -47.00, 39.43 113.84 11/13/2022 20:10:43 -47.01, 39.45 113.84 2.27 11
19 11/13/2022 20:58:11 53.18,-150.28 71.88 11/13/2022 20:58:18 53.19,-150.27 71.88 1.18 7
20 11/13/2022 21:47:16 -54.60, 18.05 106.80 11/13/2022 21:47:20 -54.61, 18.07 106.79 1.97 4
21 11/13/2022 22:35:22 59.16,-171.72 77.51 11/13/2022 22:35:22 59.17,-171.71 77.51 0.64 0
22 11/13/2022 23:24:32 -60.25, -3.38 101.45 11/13/2022 23:24:29 -60.26, -3.36 101.44 1.40 3
23 11/14/2022 00:12:57 63.68, 166.84 81.84 11/14/2022 00:12:50 63.68, 166.84 81.84 0.07 7
24 11/14/2022 01:02:11 -64.50, -24.82 97.36 11/14/2022 01:02:01 -64.51, -24.81 97.35 0.64 10
25 11/14/2022 01:50:50 67.09, 145.36 85.18 11/14/2022 01:50:36 67.08, 145.34 85.18 0.91 14
26 11/14/2022 02:40:08 -67.66, -46.38 94.25 11/14/2022 02:39:51 -67.66, -46.38 94.25 0.25 17
27 11/14/2022 03:28:56 69.72, 123.83 87.80 11/14/2022 03:28:35 69.70, 123.80 87.79 1.85 21
28 11/14/2022 04:18:17 -70.10, -68.00 91.80 11/14/2022 04:17:53 -70.09, -68.02 91.81 1.23 24
29 11/14/2022 05:07:11 71.79, 102.28 89.93 11/14/2022 05:06:43 71.77, 102.23 89.91 2.86 28
30 11/14/2022 05:56:34 -72.05, -89.63 89.80 11/14/2022 05:56:03 -72.04, -89.67 89.82 2.28 31
31 11/14/2022 06:46:14 71.25, 76.67 89.40 11/14/2022 06:45:38 71.27, 76.71 89.41 2.72 36
32 11/14/2022 07:35:32 -71.78,-114.81 90.05 11/14/2022 07:34:53 -71.81,-114.76 90.03 3.29 39
33 11/14/2022 08:24:37 72.86, 54.79 91.08 11/14/2022 08:23:54 72.87, 54.83 91.08 1.64 43
34 11/14/2022 09:13:57 -73.27,-136.75 88.49 11/14/2022 09:13:11 -73.29,-136.71 88.48 2.17 46
35 11/14/2022 10:03:05 74.17, 32.85 92.48 11/14/2022 10:02:15 74.17, 32.86 92.48 0.52 50
36 11/14/2022 10:52:27 -74.46,-158.82 87.20 11/14/2022 10:51:34 -74.47,-158.80 87.20 1.03 53
37 11/14/2022 11:41:37 75.24, 10.82 93.66 11/14/2022 11:40:40 75.24, 10.80 93.65 0.63 57
38 11/14/2022 12:31:00 -75.47, 179.09 86.08 11/14/2022 12:30:00 -75.47, 179.08 86.09 0.13 60
39 11/14/2022 13:20:12 76.13, -11.29 94.68 11/14/2022 13:19:08 76.12, -11.34 94.65 1.80 64
40 11/14/2022 14:09:36 -76.30, 156.89 85.12 11/14/2022 14:08:29 -76.29, 156.85 85.15 1.32 67



Historial Predications of SNOs between LANDSAT-8 and TERRA
